Powrót do katalogu

THORAD AGENA D DEB

AktywnyLEO
NORAD 4895·DEBRIS·🇺🇸 United States

Wystrzelony Sep 30, 1969 z Vandenberg Space Force Base

Loading…

Następne Przeloty

TLE

Source: Space-Track
1 04895U 69082HE  26228.59649650  .00000494  00000-0  16357-3 0  9997
2 04895  70.1711 301.8626 0040994 205.1860 154.7274 14.42915929951910

Śledź THORAD AGENA D DEB w czasie rzeczywistym z AllMySat

Download on the App Store